Tracking 20712 objects as of 29-May-2020
HD Live streaming from Space Station
objects crossing your sky now

COSMOS 1375 DEB

Track COSMOS 1375 DEB now!
10-day predictions


NORAD ID: 17797
Int'l Code: 1982-055AP
Perigee: 928.9 km
Apogee: 960.9 km
Inclination: 65.8 °
Period: 103.8 minutes
Semi major axis: 7315 km
RCS: 0.0324 m2 (small)
Launch date: June 6, 1982
Source: Commonwealth of Independent States (former USSR) (CIS)
Launch site: PLESETSK MISSILE AND SPACE COMPLEX (PKMTR)

Note: This is SATELLITE DEBRIS
aabbcc
Your satellite tracking list
Your tracking list is empty




NASA's NSSDC Master Catalog

Two Line Element Set (TLE):
1 17797U 82055AP  20150.39410896 +.00000146 +00000-0 +19390-3 0  9995
2 17797 065.8270 123.7722 0021889 262.1595 261.7499 13.87389033745181
Source of the keplerian elements: AFSPC